Flag for Russia Weather past 2 weeks in Yuzhno-Sakhalinsk, Russia

Now
43 °F

Passing clouds.


Feels Like: 43 °F
Forecast: 42 / 68 °F
Wind: 1 mph from Northeast

Location: Yuzhno Airport-Sakhalinsk

Current Time: Aug 29, 2015 at 12:44:15 AM

Latest Report: Aug 29, 2015 at 12:00 AM


Visibility: N/A

Pressure: 30.12 "Hg

Humidity: 100%

Dew point: 43 °F

Location of Yuzhno-SakhalinskLocation

Historic Weather in Yuzhno-Sakhalinsk — Graph

°F

Yuzhno-Sakhalinsk temperature yesterday

Maximum temperature yesterday: 64 °F (at 12:30 PM)
Minimum temperature yesterday: 45 °F (at 10:00 PM)
Average temperature yesterday: 57 °F

Past Weeks' High & Low Weather Summary

 TemperatureHumidityPressure
High81 °F (Aug 25, 2:00 PM)100% (Aug 14, 12:00 AM)30.18 "Hg (Aug 14, 12:00 AM)
Low39 °F (Aug 25, 4:00 AM)34% (Aug 25, 2:00 PM)29.74 "Hg (Aug 20, 4:00 PM)
Average60 °F87%29.95 "Hg
* Reported Aug 13 11:00 PM — Aug 28 11:00 PM, Yuzhno-Sakhalinsk, Weather by CustomWeather, © 2015

Note: Actual official high and low records may vary slightly from our data, if they occured in-between our weather recording intervals... More about our weather records

Advertising

Yuzhno-Sakhalinsk weather history for previous 24 hours

 ConditionsComfort  
Time TempWeatherWind HumidityBarometerVisibility
11:00 PM
Fri, Aug 28
45 °FPassing clouds.1 mph93%30.12 "HgN/A
10:00 PM45 °FPassing clouds.No wind93%30.12 "HgN/A
9:30 PM48 °FPassing clouds.3 mph87%30.12 "HgN/A
9:00 PM50 °FPassing clouds.1 mph82%30.12 "HgN/A
8:30 PM50 °FPassing clouds.1 mph88%30.12 "HgN/A
8:00 PM52 °FPassing clouds.3 mph82%30.12 "HgN/A
7:30 PM54 °FPassing clouds.1 mph77%30.12 "HgN/A
7:00 PM54 °FPassing clouds.1 mph77%30.09 "HgN/A
6:30 PM57 °FClear.3 mph67%30.09 "HgN/A
6:00 PM57 °FClear.6 mph67%30.09 "HgN/A
5:30 PM59 °FClear.3 mph63%30.09 "HgN/A
5:00 PM61 °FClear.6 mph59%30.09 "HgN/A
4:30 PM63 °FClear.8 mph59%30.09 "HgN/A
4:00 PM63 °FClear.8 mph59%30.09 "HgN/A
3:30 PM64 °FClear.6 mph52%30.12 "HgN/A
3:00 PM64 °FClear.8 mph56%30.12 "HgN/A
2:30 PM64 °FClear.8 mph56%30.12 "HgN/A
2:00 PM64 °FClear.6 mph56%30.12 "HgN/A
1:00 PM64 °FClear.3 mph52%30.15 "HgN/A
12:30 PM64 °FClear.3 mph60%30.15 "HgN/A
12:00 PM63 °FClear.3 mph59%30.15 "HgN/A
11:30 AM63 °FClear.6 mph64%30.15 "HgN/A
11:00 AM59 °FClear.6 mph72%30.18 "HgN/A
10:30 AM59 °FClear.3 mph68%30.18 "HgN/A
10:00 AM59 °FClear.3 mph68%30.18 "HgN/A
9:30 AM59 °FClear.1 mph68%30.18 "HgN/A
9:00 AM57 °FClear.1 mph72%30.18 "HgN/A
8:30 AM57 °FClear.1 mph77%30.18 "HgN/A
8:00 AM55 °FClear.3 mph82%30.18 "HgN/A
7:30 AM55 °FClear.1 mph82%30.18 "HgN/A
7:00 AM55 °FClear.1 mph82%30.18 "HgN/A
6:30 AM55 °FClear.6 mph82%30.18 "HgN/A
6:00 AM54 °FClear.3 mph88%30.18 "HgN/A
5:30 AM54 °FClear.10 mph88%30.15 "HgN/A
5:00 AM52 °FClear.1 mph88%30.15 "HgN/A
4:00 AM52 °FClear.3 mph94%30.15 "HgN/A
3:00 AM52 °FClear.1 mph88%30.15 "HgN/A
2:00 AM55 °FClear.3 mph82%30.15 "HgN/A
1:00 AM54 °FClear.3 mph88%30.18 "HgN/A
12:30 AM54 °FClear.6 mph88%30.18 "HgN/A
12:00 AM54 °FClear.No wind88%30.18 "HgN/A
Weather by CustomWeather, © 2015

See weather overviewHow to use our weather pages